Regional Weather Roundup
Issued by NWS

Home | Current Version | Previous Version | Graphics & Text | Print | Product List | Glossary On
Versions: 1 2 3 4 5 6 7 8 9 10 11 12 13 14 15 16 17 18 19 20 21 22 23 24 25 26 27 28 29 30 31 32 33 34 35 36 37 38 39 40 41 42 43 44 45 46 47 48 49 50
000
ASUS43 KIND 010109
RWRIN

WEATHER ROUNDUP FOR INDIANA
NATIONAL WEATHER SERVICE INDIANAPOLIS IN
900 PM EDT TUE JUN 30 2015

NOTE: "FAIR" INDICATES FEW OR NO CLOUDS BELOW 12,000 FEET WITH NO
SIGNIFICANT WEATHER AND/OR OBSTRUCTIONS TO VISIBILITY.

* - STATION DOES NOT REPORT WEATHER SUCH AS PRECIPITATION OR FOG.

+ - STATION NOT QUALITY CONTROLLED BY THE NATIONAL WEATHER SERVICE.
    USE DATA WITH CAUTION...ESPECIALLY DEWPOINT AND RELATIVE
    HUMIDITY OBSERVATIONS.

INZ001>003-010>013-019-020-010200-
NORTHWEST INDIANA

CITY           SKY/WX    TMP DP  RH WIND       PRES   REMARKS
GARY /AIRPORT/ CLOUDY   N/A N/A N/A N9        29.88R FOG
RENSSELAER +   CLEAR     70  63  78 N7        29.85R
VALPARAISO     CLEAR     65  58  78 N6        29.87R

$$

LMZ046-743>745-010200-
SOUTHERN LAKE MICHIGAN

STATION/POSITION TIME  TEMP    WIND        PRES    WAVE
                       AIR SEA DIR/SP/G            HT
                 (UTC) (F)     (DEG/KT/KT) (MB)    (FT)
BURNS HARBOR     0100   60      20/  9/ 11 1012.2S
MICHIGAN CITY    0100   58      10/ 11/ 14   N/A
5NW MICH CITY    0100   60 65   40/  8/ 10   N/A     2

$$

INZ004-005-014>016-021>024-010200-
NORTH CENTRAL INDIANA

CITY           SKY/WX    TMP DP  RH WIND       PRES   REMARKS
ELKHART        CLEAR     64  59  82 NW6       29.85R
GOSHEN         CLEAR     67  58  72 NW14      29.84R
PERU/GRISSOM   PTCLDY    71  62  73 N8        29.84R
SOUTH BEND     CLEAR     65  59  81 NW8       29.87R

$$

INZ006>009-017-018-025>027-010200-
NORTHEAST INDIANA

CITY           SKY/WX    TMP DP  RH WIND       PRES   REMARKS
ANGOLA *+      MOCLDY    70  61  73 NW7       29.81R
FORT WAYNE     CLEAR     70  59  68 NW8       29.83R

$$

INZ028-029-035-036-043>045-051>053-010200-
WEST CENTRAL INDIANA

CITY           SKY/WX    TMP DP  RH WIND       PRES   REMARKS
CRAWFORDSVL +  PTCLDY    71  59  65 NW5       29.85R
GREENCASTLE +  MOCLDY    73  63  68 CALM      29.85R
LAFAYETTE      PTCLDY    73  63  70 N8        29.83R
TERRE HAUTE    PTCLDY    73  65  75 W5        29.84R

$$

INZ030>032-037>040-046>048-054>057-064-065-010200-
CENTRAL INDIANA

CITY           SKY/WX    TMP DP  RH WIND       PRES   REMARKS
COLUMBUS       PTCLDY    73  57  56 W9        29.84R
GREENWOOD *+   MOCLDY    75  61  60 N6        29.84R
INDIANAPOLIS   PTCLDY    75  63  66 NW9       29.82R
-EAGLE CREEK   PTCLDY    76  64  66 NW8       29.83R
KOKOMO *+      MOCLDY    72  63  73 N9        29.84R
MT COMFORT *+  PTCLDY    72  55  56 NW6       29.84R
SHELBYVILLE    MOCLDY    71  60  68 SW8       29.83R THUNDER

$$

INZ033-034-041-042-049-050-058-059-010200-
EAST CENTRAL INDIANA

CITY           SKY/WX    TMP DP  RH WIND       PRES   REMARKS
MUNCIE         CLEAR     73  62  68 NW7       29.82R

$$

INZ060-061-067>069-081>083-085>088-010200-
SOUTHWEST INDIANA

CITY           SKY/WX    TMP DP  RH WIND       PRES   REMARKS
EVANSVILLE     PTCLDY    78  68  71 SW7       29.86R
HUNTINGBURG *+ PTCLDY    75  66  73 W8        29.86R

$$

INZ062-063-066-070>080-084-089>092-010200-
SOUTH CENTRAL AND SOUTHEAST INDIANA

CITY           SKY/WX    TMP DP  RH WIND       PRES   REMARKS
BLOOMINGTON    MOCLDY    68  66  93 CALM      29.85R
MADISON *+     MOCLDY    68  63  83 SE5       29.88R
NORTH VERNON + PTCLDY    70  68  94 CALM      29.86R
SEYMOUR +      MOCLDY    72  66  83 SE3       29.83R

$$



USA.gov is the U.S. government's official web portal to all federal, state and local government web resources and services.